| time (UTC) | temp F | wind direction | speed MPH | gust MPH | rain 1hr in | rain 24hr in | rain mn in | humidity % | barometer mb |
| 20260505021528 | 62 | 343 | 7.0 | 15.0 | 0.00 | 0.00 | 0.00 | 61 | 1018.3 |
| 20260505020517 | 62 | 329 | 5.0 | 15.0 | 0.00 | 0.00 | 0.00 | 62 | 1018.5 |
| 20260505015527 | 61 | 346 | 6.0 | 13.0 | 0.00 | 0.00 | 0.00 | 64 | 1018.7 |
| 20260505014536 | 62 | 339 | 6.0 | 11.0 | 0.00 | 0.00 | 0.00 | 63 | 1018.7 |
| 20260505013524 | 61 | 329 | 5.0 | 13.0 | 0.00 | 0.00 | 0.00 | 64 | 1018.7 |
| 20260505012534 | 62 | 4 | 5.0 | 13.0 | 0.00 | 0.00 | 0.00 | 64 | 1018.9 |
| 20260505011521 | 61 | 340 | 7.0 | 15.0 | 0.00 | 0.00 | 0.00 | 64 | 1018.8 |
| 20260505010537 | 61 | 343 | 5.0 | 11.0 | 0.00 | 0.00 | 0.00 | 62 | 1018.8 |
| 20260505005519 | 60 | 340 | 8.0 | 13.0 | 0.00 | 0.00 | 0.00 | 63 | 1018.8 |
| 20260505004526 | 60 | 341 | 5.0 | 11.0 | 0.00 | 0.00 | 0.00 | 64 | 1018.8 |
| 20260505003536 | 60 | 343 | 6.0 | 12.0 | 0.00 | 0.00 | 0.00 | 63 | 1018.8 |
| 20260505002524 | 60 | 316 | 6.0 | 11.0 | 0.00 | 0.00 | 0.00 | 63 | 1018.7 |
| 20260505001534 | 60 | 334 | 8.0 | 13.0 | 0.00 | 0.00 | 0.00 | 63 | 1018.5 |
| 20260505000522 | 59 | 312 | 5.0 | 12.0 | 0.00 | 0.00 | 0.00 | 65 | 1018.5 |
| 20260504235532 | 59 | 303 | 7.0 | 11.0 | 0.00 | 0.00 | 0.00 | 67 | 1018.4 |
| 20260504234520 | 59 | 314 | 5.0 | 12.0 | 0.00 | 0.00 | 0.00 | 69 | 1018.4 |
| 20260504233542 | 59 | 323 | 6.0 | 12.0 | 0.00 | 0.00 | 0.00 | 71 | 1018.2 |
| 20260504232517 | 58 | 323 | 6.0 | 11.0 | 0.00 | 0.00 | 0.00 | 73 | 1018.3 |
| 20260504231525 | 58 | 313 | 8.0 | 15.0 | 0.00 | 0.00 | 0.00 | 76 | 1018.0 |
| 20260504230534 | 57 | 311 | 5.0 | 11.0 | 0.00 | 0.00 | 0.00 | 81 | 1018.2 |
| 20260504225524 | 57 | 312 | 5.0 | 10.0 | 0.00 | 0.00 | 0.00 | 77 | 1018.2 |
| 20260504224532 | 56 | 322 | 5.0 | 13.0 | 0.00 | 0.00 | 0.00 | 83 | 1018.4 |
| 20260504223520 | 56 | 339 | 5.0 | 11.0 | 0.00 | 0.00 | 0.00 | 82 | 1018.5 |
| 20260504222529 | 57 | 333 | 3.0 | 6.0 | 0.00 | 0.00 | 0.00 | 80 | 1018.5 |
| 20260504221531 | 55 | 337 | 2.0 | 5.0 | 0.00 | 0.00 | 0.00 | 82 | 1018.4 |
| 20260504220526 | 55 | 342 | 2.0 | 6.0 | 0.00 | 0.00 | 0.00 | 81 | 1018.2 |
| 20260504215536 | 55 | 320 | 3.0 | 6.0 | 0.00 | 0.00 | 0.00 | 81 | 1017.9 |
| 20260504214523 | 54 | 325 | 2.0 | 4.0 | 0.00 | 0.00 | 0.00 | 82 | 1017.9 |
| 20260504213532 | 54 | 311 | 1.0 | 3.0 | 0.00 | 0.00 | 0.00 | 83 | 1017.7 |
| 20260504212521 | 53 | 337 | 2.0 | 5.0 | 0.00 | 0.00 | 0.00 | 85 | 1017.5 |
| 20260504211537 | 52 | 197 | 1.0 | 4.0 | 0.00 | 0.00 | 0.00 | 86 | 1017.4 |
| 20260504210518 | 52 | 76 | 2.0 | 3.0 | 0.00 | 0.00 | 0.00 | 87 | 1017.3 |
| 20260504205527 | 53 | 120 | 1.0 | 2.0 | 0.00 | 0.00 | 0.00 | 83 | 1017.2 |
| 20260504204517 | 54 | 288 | 3.0 | 6.0 | 0.00 | 0.00 | 0.00 | 82 | 1016.9 |
| 20260504203525 | 54 | 275 | 3.0 | 7.0 | 0.00 | 0.00 | 0.00 | 81 | 1016.9 |
| 20260504202535 | 54 | 268 | 3.0 | 5.0 | 0.00 | 0.00 | 0.00 | 81 | 1016.8 |
| 20260504201523 | 54 | 277 | 3.0 | 5.0 | 0.00 | 0.00 | 0.00 | 81 | 1016.6 |
| 20260504200548 | 54 | 274 | 4.0 | 6.0 | 0.00 | 0.00 | 0.00 | 80 | 1016.4 |
| 20260504195521 | 54 | 279 | 6.0 | 10.0 | 0.00 | 0.00 | 0.00 | 81 | 1016.3 |
| 20260504194530 | 54 | 276 | 5.0 | 9.0 | 0.00 | 0.00 | 0.00 | 81 | 1016.2 |
| 20260504193519 | 54 | 273 | 5.0 | 7.0 | 0.00 | 0.00 | 0.00 | 81 | 1016.0 |
| 20260504192528 | 54 | 278 | 4.0 | 6.0 | 0.00 | 0.00 | 0.00 | 81 | 1015.7 |
| 20260504191543 | 54 | 275 | 4.0 | 9.0 | 0.00 | 0.00 | 0.00 | 81 | 1015.6 |
| 20260504190525 | 54 | 310 | 7.0 | 13.0 | 0.00 | 0.00 | 0.00 | 80 | 1015.6 |
| 20260504185535 | 54 | 287 | 5.0 | 9.0 | 0.00 | 0.00 | 0.00 | 80 | 1015.3 |
| 20260504184523 | 54 | 301 | 6.0 | 10.0 | 0.00 | 0.00 | 0.00 | 81 | 1015.3 |
| 20260504183537 | 54 | 291 | 5.0 | 10.0 | 0.00 | 0.00 | 0.00 | 81 | 1015.1 |
| 20260504182520 | 54 | 294 | 5.0 | 11.0 | 0.00 | 0.00 | 0.00 | 81 | 1015.1 |
| 20260504181529 | 55 | 298 | 5.0 | 9.0 | 0.00 | 0.00 | 0.00 | 81 | 1015.1 |
| 20260504180517 | 54 | 290 | 5.0 | 7.0 | 0.00 | 0.00 | 0.00 | 82 | 1015.2 |
| 20260504175526 | 55 | 295 | 5.0 | 11.0 | 0.00 | 0.00 | 0.00 | 82 | 1015.1 |
| 20260504174536 | 55 | 303 | 6.0 | 10.0 | 0.00 | 0.00 | 0.00 | 82 | 1015.3 |
| 20260504173522 | 55 | 299 | 6.0 | 10.0 | 0.00 | 0.00 | 0.00 | 81 | 1015.0 |
| 20260504172532 | 55 | 290 | 6.0 | 10.0 | 0.00 | 0.00 | 0.00 | 82 | 1014.9 |
| 20260504171529 | 55 | 292 | 5.0 | 12.0 | 0.00 | 0.00 | 0.00 | 82 | 1015.0 |
| 20260504170530 | 54 | 301 | 6.0 | 10.0 | 0.00 | 0.00 | 0.00 | 83 | 1015.1 |
| 20260504150537 | 51 | 342 | 1.0 | 4.0 | 0.00 | 0.00 | 0.00 | 97 | 1015.9 |